Weather History for KBKL - May, 2013

Change the Weather History Date:

Saturday, May 11, 2013

  Actual Average Record
Temperature  
Mean Temperature 50 °F -  
Max Temperature 57 °F 65 °F 88 °F (2015)
Min Temperature 45 °F 49 °F 44 °F (2002)
Degree Days  
Heating Degree Days 15    
Moisture  
Dew Point 44 °F    
Average Humidity 84    
Maximum Humidity 93    
Minimum Humidity 69    
Precipitation  
Precipitation 0.05 in - - ()
Sea Level Pressure  
Sea Level Pressure 29.84 in    
Wind  
Wind Speed 10 mph (WNW)    
Max Wind Speed 25 mph    
Max Gust Speed 38 mph    
Visibility 8 miles    
Events Rain    
Averages and records for this station are not official NWS values.
T = Trace of Precipitation, MM = Missing Value Source: NWS Daily Summary

Daily Weather History Graph

Daily Weather History Graph

Search for Another Location

Airport or City:

Trip Planner

Search our weather history database for the weather conditions in past years. The results will help you decide how hot, cold, wet, or windy it might be!

Date:

Astronomy

May. 11, 2013 Rise Set
Actual Time 6:11 AM EDT 8:35 PM EDT
Civil Twilight 5:40 AM EDT 9:06 PM EDT
Nautical Twilight 5:01 AM EDT 9:45 PM EDT
Astronomical Twilight 4:18 AM EDT 10:28 PM EDT
Moon 7:17 AM EDT (5/11) 10:15 PM EDT (5/11)
Length of Visible Light 15h 26m
Length of Day
14h 23m
Waxing Crescent, 3% of the Moon is Illuminated
May 11
Waxing Crescent
May 18
First Quarter
May 25
Full
May 31
Last Quarter
Jun 8
New

Hourly Weather History & Observations

Time (EDT) Temp. Windchill Dew Point Humidity Pressure Visibility Wind Dir Wind Speed Gust Speed Precip Events Conditions
12:04 AM 48.2 °F - 46.4 °F 93% 29.81 in 4.0 mi North 10.4 mph - 0.00 in Rain Light Rain
12:53 AM 48.0 °F - 46.0 °F 93% 29.82 in 4.0 mi North 9.2 mph - 0.01 in   Overcast
1:53 AM 46.9 °F - 44.1 °F 90% 29.83 in 4.0 mi NW 13.8 mph - N/A   Overcast
2:27 AM 46.4 °F 41.1 °F 44.6 °F 93% 29.83 in 5.0 mi NNW 11.5 mph - N/A   Overcast
2:51 AM 46.4 °F 41.9 °F 42.8 °F 87% 29.83 in 5.0 mi NW 9.2 mph - N/A   Overcast
2:53 AM 46.0 °F 41.0 °F 43.0 °F 89% 29.84 in 5.0 mi NW 10.4 mph - N/A   Overcast
3:53 AM 45.0 °F 39.7 °F 43.0 °F 93% 29.84 in 5.0 mi NW 10.4 mph - N/A   Overcast
4:53 AM 45.0 °F 39.7 °F 43.0 °F 93% 29.85 in 8.0 mi NW 10.4 mph - N/A   Overcast
5:53 AM 45.0 °F 40.1 °F 43.0 °F 93% 29.85 in 3.0 mi NW 9.2 mph - N/A   Overcast
6:53 AM 45.0 °F 39.3 °F 43.0 °F 93% 29.86 in 7.0 mi NW 11.5 mph - N/A   Overcast
7:53 AM 45.0 °F 40.6 °F 43.0 °F 93% 29.87 in 10.0 mi WNW 8.1 mph - N/A   Overcast
8:20 AM 46.4 °F 42.9 °F 42.8 °F 87% 29.86 in 10.0 mi NW 6.9 mph - N/A   Overcast
8:53 AM 45.0 °F 40.6 °F 43.0 °F 93% 29.86 in 10.0 mi NW 8.1 mph - N/A   Overcast
9:53 AM 46.0 °F 43.1 °F 43.0 °F 89% 29.86 in 10.0 mi NW 5.8 mph - N/A   Overcast
10:53 AM 46.9 °F - 43.0 °F 86% 29.86 in 10.0 mi WNW 5.8 mph - N/A   Overcast
11:53 AM 46.9 °F - 42.1 °F 83% 29.87 in 10.0 mi West 4.6 mph - N/A   Overcast
12:53 PM 46.9 °F - 43.0 °F 86% 29.86 in 9.0 mi West 4.6 mph - N/A   Overcast
1:53 PM 46.9 °F - 44.1 °F 90% 29.86 in 7.0 mi NW 3.5 mph - N/A   Overcast
2:53 PM 48.9 °F - 46.0 °F 90% 29.85 in 6.0 mi Calm Calm - N/A   Overcast
3:50 PM 51.8 °F - 46.4 °F 82% 29.83 in 6.0 mi WNW 3.5 mph - N/A   Overcast
3:53 PM 50.0 °F - 46.0 °F 86% 29.83 in 6.0 mi Calm Calm - N/A   Overcast
4:53 PM 52.0 °F - 46.9 °F 83% 29.81 in 7.0 mi WNW 3.5 mph - N/A   Overcast
5:32 PM 53.6 °F - 46.4 °F 77% 29.81 in 8.0 mi SW 11.5 mph 16.1 mph N/A   Overcast
5:53 PM 55.9 °F - 48.0 °F 75% 29.81 in 10.0 mi SW 12.7 mph - N/A   Overcast
6:53 PM 55.9 °F - 46.0 °F 69% 29.80 in 10.0 mi SW 15.0 mph 20.7 mph N/A   Mostly Cloudy
7:53 PM 55.0 °F - 46.0 °F 72% 29.80 in 10.0 mi SW 11.5 mph 19.6 mph N/A   Mostly Cloudy
8:53 PM 55.0 °F - 46.0 °F 72% 29.80 in 10.0 mi SW 13.8 mph - N/A   Overcast
9:09 PM 53.6 °F - 46.4 °F 77% 29.79 in 10.0 mi SW 15.0 mph 21.9 mph N/A   Overcast
9:28 PM 53.6 °F - 46.4 °F 77% 29.79 in 10.0 mi SW 13.8 mph - N/A   Mostly Cloudy
9:53 PM 54.0 °F - 46.0 °F 75% 29.81 in 10.0 mi SW 13.8 mph - N/A   Mostly Cloudy
10:23 PM 48.2 °F - 44.6 °F 87% 29.83 in 7.0 mi West 24.2 mph 38.0 mph 0.03 in Rain Light Rain
10:48 PM 48.2 °F - 41.0 °F 76% 29.85 in 10.0 mi WNW 18.4 mph 27.6 mph 0.03 in   Overcast
10:53 PM 48.9 °F - 42.1 °F 77% 29.86 in 10.0 mi West 16.1 mph 27.6 mph 0.03 in   Overcast
11:04 PM 48.2 °F - 42.8 °F 82% 29.86 in 10.0 mi WNW 25.3 mph 32.2 mph 0.00 in Rain Light Rain
11:53 PM 46.0 °F 38.5 °F 39.0 °F 76% 29.90 in 10.0 mi NW 19.6 mph 29.9 mph 0.01 in   Overcast